SCP
0 0 0 0 0 0 0 0 0 0 0 -0 0 0 0 0 0 0 -0 -0 -0 -0 -0 -0 -0 0 0 0 0 0 0 0 0 0 0 0 0 0 0 0 0 0 0 0
0 0 0 0 0 0 0 0 0 0 0 -0 -0 0 0 0 0 0 -0 -0 -0 -0 -0 -0 -0 0 0 0 0 0 0 0 0 0 0 0 0 0 0 0 0 0 0 0
-0 -0 -0 0 0 0 -0 -0 0 0 0 0 0 0 -0 -0 -0 0 0 -0 -0 -0 0 0 0 0 0 0 0 0 0 0 0 0 0 0 0 0 0 0 0 0 0 0
0 0 0 0 0 0 0 -0 0 0 0 -0 0 -0 -0 -0 0 0 -0 -0 0 0 0 0 0 0 0 0 0 0 0 0 0 0 0 0 0 0 0 0 0 0 0 0
0 0 0 0 0 0 0 -0 -0 -0 0 -0 -0 -0 -0 -0 -0 -0 0 0 0 0 0 0 0 0 0 0 0 0 0 0 0 0 0 0 0 0 0 0 0 0 0 0
0 0 0 0 0 0 0 -0 0 0 0 0 0 -0 -0 0 0 0 0 -0 0 0 0 0 0 0 0 0 0 0 0 0 0 0 0 0 0 0 0 0 0 0 0 0
0 0 0 0 -0 -0 0 0 0 0 0 0 -0 0 -0 -0 0 0 -0 0 0 0 0 0 0 0 0 0 0 0 0 0 0 0 0 0 0 0 0 0 0 0 0 0
0 0 0 0 0 0 0 0 0 0 -0 0 0 0 -0 -0 -0 0 -0 -0 0 0 0 0 0 0 0 0 0 0 0 0 0 0 0 0 0 0 0 0 0 0 0 0
0 0 0 0 0 0 0 0 0 -0 -0 -0 -0 -0 -0 -0 -0 -0 -0 -0 -0 -0 0 0 0 0 0 0 0 0 0 0 0 0 0 0 0 0 0 0 0 0 0 0
0 0 0 0 0 0 0 0 0 -0 -0 0 -0 -0 -0 -0 -0 -0 -0 -0 -0 -0 0 0 0 0 0 0 0 0 0 0 0 0 0 0 0 0 0 0 0 0 0 0
0 0 0 0 0 0 0 0 0 0 -0 -0 -0 -0 -0 -0 -0 -0 -0 -0 -0 -0 0 0 0 0 0 0 0 0 0 0 0 0 0 0 0 0 0 0 0 0 0 0
0 0 0 0 0 0 -0 0 0 -0 -0 -0 -0 -0 -0 -0 -0 -0 -0 -0 -0 -0 -0 -0 -0 -0 0 0 0 0 0 0 0 0 0 0 0 0 0 0 0 0 0 0
0 0 0 0 0 0 0 -0 -0 -0 -0 -0 -0 -0 -0 -0 -0 -0 -0 -0 -0 -0 -0 -0 -0 -0 0 0 0 0 0 0 0 0 0 0 0 0 0 0 0 0 0 0
0 0 0 0 0 0 0 0 0 -0 -0 -0 0 -0 -0 -0 -0 -0 -0 -0 0 0 0 0 0 0 0 0 0 0 0 0 0 0 0 0 0 0 0 0 0 0 0 0
0 0 0 0 0 0 0 0 0 -0 0 0 0 0 -0 -0 -0 -0 -0 0 0 0 0 0 0 0 0 0 0 0 0 0 0 0 0 0 0 0 0 0 0 0 0 0
0 0 0 0 0 0 0 0 0 0 0 0 0 0 0 0 0 0 0 0 0 0 0 0 0 0 0 0 0 0 0 0 0 0 0 0 0 0 0 0 0 0 0 0
0 0 0 0 0 0 0 0 0 0 0 0 0 0 0 0 0 0 0 0 0 0 0 0 0 0 0 0 0 0 0 0 0 0 0 0 0 0 0 0 0 0 0 0
0 0 -0 -0 0 0 0 0 0 0 0 0 0 0 0 0 0 0 0 0 0 0 0 0 0 0 0 0 0 0 0 0 0 0 0 0 0 0 0 0 0 0 0 0
0 0 0 0 0 -0 -0 0 0 0 0 0 0 0 0 0 0 0 0 0 0 0 0 0 0 0 0 0 0 0 0 0 0 0 0 0 0 0 0 0 0 0 0 0
0 0 0 0 -0 -0 -0 -0 -0 -0 0 0 0 0 0 0 0 0 0 0 0 0 0 0 0 0 0 0 0 0 0 0 0 0 0 0 0 0 0 0 0 0 0 0
0 0 0 0 0 -0 -0 -0 -0 -0 0 0 -0 -0 -0 -0 0 0 0 0 0 0 0 0 0 0 0 0 0 0 0 0 0 0 0 0 0 0 0 0 0 0 0 0
0 0 0 -0 -0 -0 -0 0 0 -0 -0 -0 -0 -0 -0 -0 -0 -0 -0 -0 0 0 0 0 0 0 0 0 0 0 0 0 0 0 0 0 0 0 0 0 0 0 0 0
0 0 0 0 0 0 0 0 0 0 0 0 0 0 -0 -0 -0 -0 0 0 0 0 -0 -0 0 0 0 -0 -0 0 0 0 0 0 0 0 0 0 0 0 0 0 0 0
0 0 0 0 0 0 0 0 0 0 -0 -0 -0 -0 -0 -0 -0 -0 -0 -0 -0 -0 -0 -0 0 0 0 -0 0 0 0 0 0 0 0 0 0 0 0 0 0 0 0 0
0 0 0 0 0 0 0 0 0 0 0 0 -0 -0 -0 -0 -0 -0 -0 -0 -0 -0 -0 -0 -0 -0 -0 -0 -0 -0 0 0 0 0 0 0 0 0 0 0 0 0 0 0
0 0 0 0 0 0 0 0 0 0 0 0 0 -0 0 -0 -0 -0 -0 -0 -0 -0 -0 -0 -0 -0 -0 -0 -0 0 0 0 0 0 0 0 0 0 0 0 0 0 0 0
0 0 0 0 0 0 0 -0 -0 0 -0 -0 0 -0 -0 -0 -0 -0 -0 -0 -0 -0 -0 -0 -0 -0 -0 -0 -0 0 0 0 0 0 0 0 0 0 0 0 0 0 0 0
Wind_Speed_500mb
45 39 42 40 29 21 21 38 37 50 53 72 53 45 49 57 56 59 60 53 53 57 64 62 62 61 51 50 57 61 61 67 75 76 81 86 92 94 91 88 85 82 83 83
11 29 32 41 47 46 45 44 35 45 54 68 76 71 76 65 60 64 71 67 58 66 70 78 74 70 65 61 57 62 67 71 71 74 75 79 86 90 86 85 85 84 84 80
10 15 25 20 46 45 46 47 43 43 56 60 58 41 45 58 70 70 74 60 64 72 87 86 80 86 78 65 62 61 66 68 71 74 77 75 76 81 86 86 81 78 76 73
8 7 18 23 25 33 35 39 40 45 55 62 60 61 58 72 82 81 78 90 96 99 97 91 82 86 78 67 60 69 67 71 69 71 74 73 72 75 77 77 76 74 73 71
7 13 28 42 37 30 34 43 35 42 53 58 54 56 71 75 65 79 86 98 96 93 89 88 89 90 82 76 81 74 77 74 69 65 70 72 75 76 76 74 75 74 73 70
9 10 15 32 16 25 25 35 24 32 39 38 38 27 18 52 62 61 65 72 80 88 91 90 97 88 95 98 91 83 74 77 75 71 69 69 69 71 72 71 70 67 65 64
21 17 23 11 24 29 23 14 48 43 42 46 20 32 71 60 66 75 76 70 80 82 84 89 90 90 92 90 91 93 80 78 80 78 75 71 70 70 69 68 66 66 67 67
14 16 30 30 7 26 16 17 31 51 52 63 66 66 73 70 63 72 84 86 67 66 81 90 88 89 92 96 92 80 81 84 81 79 75 76 75 73 74 72 72 73 71 68
18 15 25 25 14 15 31 37 40 51 71 66 76 73 72 83 88 90 90 93 81 73 76 75 74 80 90 96 86 82 78 82 81 81 81 81 79 77 76 75 74 73 72 70
16 21 15 21 15 26 42 49 47 45 53 71 84 86 80 75 88 101 96 100 95 85 79 76 70 71 79 82 79 76 71 81 83 86 87 85 83 81 80 80 80 78 76 76
18 22 50 22 32 46 71 57 55 59 57 59 73 81 78 77 88 97 94 92 90 84 79 75 67 63 68 71 69 69 71 76 81 88 91 90 88 86 85 82 81 79 75 71
16 25 14 39 52 71 58 63 62 65 78 64 62 74 72 74 77 81 84 79 76 75 75 69 61 56 53 55 55 60 70 76 81 89 94 93 90 87 85 79 76 70 65 62
15 44 47 60 62 28 58 62 62 60 58 67 65 65 69 71 70 67 66 61 60 59 61 64 59 51 47 42 44 51 60 68 77 85 90 92 90 90 88 79 74 69 63 64
26 30 19 20 42 59 53 55 54 58 49 54 59 64 59 63 64 56 53 49 47 48 51 52 48 42 38 35 31 36 47 55 63 72 79 83 85 84 79 74 75 67 68 63
9 30 35 38 44 44 47 48 54 52 54 56 52 58 54 51 56 48 42 36 27 30 32 32 32 28 30 29 25 21 28 38 46 55 63 70 73 76 76 75 71 63 62 66
31 29 26 31 38 43 47 50 53 58 56 57 55 54 51 40 40 39 37 35 30 27 28 27 23 20 20 24 21 16 19 24 31 40 46 55 62 68 70 70 70 67 68 74
25 22 34 35 41 46 48 46 45 46 48 49 47 46 49 46 39 40 39 38 36 34 33 32 29 21 16 15 17 14 13 16 20 26 35 44 53 60 65 66 66 67 75 73
15 19 22 27 34 42 43 39 39 40 42 42 44 45 46 47 53 53 44 34 30 36 42 46 44 34 24 19 17 12 8 8 10 14 25 37 46 51 55 57 59 66 68 60
12 15 18 21 26 30 32 37 36 35 39 42 43 43 46 45 44 43 46 46 47 53 57 53 49 46 41 33 27 19 13 10 6 7 15 23 32 40 44 48 54 57 57 61
10 13 16 17 17 22 27 29 31 34 36 39 41 43 42 40 42 46 44 50 51 50 49 49 47 47 45 43 38 33 28 22 16 10 5 10 19 28 32 36 39 42 47 50
9 12 15 17 17 19 23 28 31 36 38 39 40 42 39 38 45 44 51 53 52 48 49 49 48 47 45 42 39 38 35 32 28 22 16 10 4 3 9 17 25 31 35 37
8 9 11 14 17 19 22 26 28 31 34 36 37 39 41 41 41 43 46 52 52 54 53 53 51 49 47 43 39 36 33 30 26 23 20 17 11 5 2 9 17 23 30 37
8 10 11 14 16 20 23 26 29 33 35 37 39 41 43 46 46 54 55 53 52 52 52 50 50 48 45 44 42 40 37 32 29 25 21 18 16 14 15 16 18 22 26 31
10 10 12 14 18 20 20 24 27 30 33 36 38 42 46 46 40 44 45 48 49 50 51 53 51 49 48 46 44 42 40 39 36 34 32 30 29 27 28 30 33 37 41 44
9 11 14 16 18 21 25 28 30 32 33 35 38 40 43 46 51 54 54 54 53 54 52 51 53 53 52 51 50 47 44 43 42 41 40 40 40 40 40 41 42 44 47 49
12 14 16 18 21 25 30 34 37 40 44 44 41 43 43 45 46 48 49 50 52 54 55 55 56 56 55 54 53 53 51 50 49 47 47 46 45 46 47 48 49 50 51 52
12 14 15 19 24 30 34 39 42 42 42 43 43 45 48 50 50 51 52 54 54 54 55 55 56 56 56 55 55 55 55 54 54 55 55 55 54 54 54 54 54 54 55 56
Wind_Direction_500mb
246 253 257 268 249 247 255 255 253 260 253 269 263 268 285 286 285 294 296 291 292 294 294 297 310 312 310 288 260 259 259 251 249 248 243 240 239 239 240 238 238 243 243 241
269 264 264 270 268 261 254 239 249 260 271 268 275 283 284 293 297 294 291 291 292 294 292 293 297 297 304 302 282 266 261 260 255 249 245 242 240 239 238 237 241 240 239 238
245 236 240 255 248 257 260 255 251 245 252 266 272 265 270 278 275 271 275 284 286 284 283 281 284 292 295 298 285 276 265 261 255 250 247 245 242 239 238 239 238 237 237 238
288 346 253 250 266 263 264 257 252 250 258 262 269 285 282 272 267 271 274 273 270 269 272 278 282 288 288 297 286 277 270 262 257 252 248 243 238 234 233 233 234 235 235 235
251 248 283 286 277 262 246 261 247 244 255 266 278 288 269 267 272 274 274 273 274 275 274 279 277 279 281 287 289 279 263 258 255 249 243 237 233 231 230 229 230 231 232 233
205 241 255 269 315 318 257 262 346 308 289 345 334 260 289 346 333 322 310 296 290 285 278 271 271 274 280 284 279 271 270 262 254 249 243 238 234 230 228 227 227 227 227 228
233 247 263 280 238 244 237 283 338 349 344 337 321 309 321 324 316 307 305 314 301 287 284 277 275 276 280 281 276 271 274 275 261 250 244 237 231 228 225 223 221 222 223 225
214 237 260 353 357 230 4 11 341 328 330 324 314 317 319 319 323 323 322 320 312 299 285 279 277 277 278 278 280 277 271 267 257 247 238 231 226 222 219 217 216 218 218 219
211 226 103 39 71 34 13 351 345 329 323 320 313 317 319 318 319 320 322 320 321 312 292 282 282 282 283 279 280 280 273 260 250 240 232 227 224 220 220 217 216 217 217 219
296 266 23 26 52 3 351 343 332 325 318 315 314 317 317 319 318 318 318 319 321 320 312 301 288 278 276 279 277 273 266 256 247 234 229 224 221 220 220 219 218 218 219 220
271 296 334 188 360 345 329 330 326 320 316 311 309 310 314 316 316 317 316 316 318 318 315 310 301 285 274 273 271 266 259 254 243 233 229 225 223 223 222 224 226 225 224 227
272 347 314 289 309 323 326 328 328 325 319 319 313 308 312 310 313 315 312 313 314 313 315 311 307 297 286 277 268 258 253 249 239 230 226 223 222 220 221 224 229 228 231 235
278 310 300 293 303 310 325 322 321 320 318 318 317 313 314 313 314 314 313 312 314 317 315 311 308 300 293 283 266 255 249 249 243 235 229 223 220 219 216 214 221 226 231 232
297 317 309 320 309 314 318 320 322 323 327 324 323 323 322 320 319 322 323 319 315 315 310 308 306 304 300 294 275 253 249 245 243 237 231 226 223 221 220 221 220 218 218 218
302 312 298 302 311 317 325 331 333 339 340 345 345 346 343 336 335 338 340 335 321 327 319 310 310 311 307 292 282 268 258 248 243 236 232 228 224 221 220 219 220 220 215 211
322 329 331 321 328 336 340 344 347 347 348 351 353 359 356 356 353 354 359 2 5 359 350 347 348 346 335 317 305 294 273 256 245 235 231 228 226 223 221 219 219 215 211 207
334 337 331 337 343 347 347 348 348 346 352 356 357 4 8 12 16 18 18 16 18 17 8 4 13 22 2 352 342 333 302 279 261 244 232 228 226 224 223 220 216 209 209 210
329 328 325 329 339 342 344 345 350 359 2 3 9 13 15 15 21 22 21 19 27 32 26 20 17 14 13 23 26 14 334 321 300 260 240 232 228 230 229 222 216 214 211 205
346 352 343 350 354 344 340 348 356 1 13 18 20 23 27 25 21 21 22 24 27 28 25 22 21 22 24 21 16 14 17 20 344 275 244 239 237 233 230 224 217 211 207 205
8 11 355 357 5 359 358 356 1 11 16 23 25 26 26 21 21 24 25 27 24 21 15 14 20 25 26 26 24 27 31 32 28 13 310 235 222 220 220 221 219 214 206 206
11 18 360 353 1 2 3 2 7 12 14 16 19 23 13 15 16 13 17 21 18 17 16 14 14 17 18 19 20 23 25 26 29 35 38 50 58 209 214 208 204 205 205 208
339 6 358 353 356 359 1 4 6 9 10 12 15 15 11 11 14 19 16 11 11 10 9 7 8 9 7 6 7 11 13 15 14 11 7 7 7 2 210 209 207 209 208 210
329 348 353 352 356 0 1 4 7 10 10 9 8 10 10 7 4 3 5 7 7 6 3 1 1 1 359 358 358 358 357 354 350 347 341 330 318 306 291 276 260 248 243 238
338 348 353 352 352 352 357 4 5 5 5 1 360 358 355 355 1 357 353 353 353 353 352 351 351 351 353 352 350 349 347 342 337 332 326 317 307 296 284 273 265 261 258 256
335 340 345 348 350 354 354 354 352 350 349 350 348 347 347 346 344 346 345 346 345 343 342 340 340 340 342 341 340 339 338 335 331 327 321 314 308 302 295 288 281 275 271 267
333 339 344 347 348 347 345 344 344 342 340 341 346 344 346 346 345 344 344 342 342 341 341 341 340 339 338 335 331 328 325 323 321 317 313 310 306 302 298 294 289 285 280 277
334 340 341 338 337 337 337 336 337 339 340 341 343 344 341 340 340 338 338 337 338 338 338 338 337 335 333 331 329 327 324 321 316 311 308 305 302 299 297 293 290 286 284 282
Wind_Speed_850mb
45 39 42 40 29 21 21 38 37 50 53 72 53 45 49 57 56 59 60 53 53 57 64 62 62 61 51 50 57 61 61 67 75 76 81 86 92 94 91 88 85 82 83 83
11 29 32 41 47 46 45 44 35 45 54 68 76 71 76 65 60 64 71 67 58 66 70 78 74 70 65 61 57 62 67 71 71 74 75 79 86 90 86 85 85 84 84 80
10 15 25 20 46 45 46 47 43 43 56 60 58 41 45 58 70 70 74 60 64 72 87 86 80 86 78 65 62 61 66 68 71 74 77 75 76 81 86 86 81 78 76 73
8 7 18 23 25 33 35 39 40 45 55 62 60 61 58 72 82 81 78 90 96 99 97 91 82 86 78 67 60 69 67 71 69 71 74 73 72 75 77 77 76 74 73 71
7 13 28 42 37 30 34 43 35 42 53 58 54 56 71 75 65 79 86 98 96 93 89 88 89 90 82 76 81 74 77 74 69 65 70 72 75 76 76 74 75 74 73 70
9 10 15 32 16 25 25 35 24 32 39 38 38 27 18 52 62 61 65 72 80 88 91 90 97 88 95 98 91 83 74 77 75 71 69 69 69 71 72 71 70 67 65 64
21 17 23 11 24 29 23 14 48 43 42 46 20 32 71 60 66 75 76 70 80 82 84 89 90 90 92 90 91 93 80 78 80 78 75 71 70 70 69 68 66 66 67 67
14 16 30 30 7 26 16 17 31 51 52 63 66 66 73 70 63 72 84 86 67 66 81 90 88 89 92 96 92 80 81 84 81 79 75 76 75 73 74 72 72 73 71 68
18 15 25 25 14 15 31 37 40 51 71 66 76 73 72 83 88 90 90 93 81 73 76 75 74 80 90 96 86 82 78 82 81 81 81 81 79 77 76 75 74 73 72 70
16 21 15 21 15 26 42 49 47 45 53 71 84 86 80 75 88 101 96 100 95 85 79 76 70 71 79 82 79 76 71 81 83 86 87 85 83 81 80 80 80 78 76 76
18 22 50 22 32 46 71 57 55 59 57 59 73 81 78 77 88 97 94 92 90 84 79 75 67 63 68 71 69 69 71 76 81 88 91 90 88 86 85 82 81 79 75 71
16 25 14 39 52 71 58 63 62 65 78 64 62 74 72 74 77 81 84 79 76 75 75 69 61 56 53 55 55 60 70 76 81 89 94 93 90 87 85 79 76 70 65 62
15 44 47 60 62 28 58 62 62 60 58 67 65 65 69 71 70 67 66 61 60 59 61 64 59 51 47 42 44 51 60 68 77 85 90 92 90 90 88 79 74 69 63 64
26 30 19 20 42 59 53 55 54 58 49 54 59 64 59 63 64 56 53 49 47 48 51 52 48 42 38 35 31 36 47 55 63 72 79 83 85 84 79 74 75 67 68 63
9 30 35 38 44 44 47 48 54 52 54 56 52 58 54 51 56 48 42 36 27 30 32 32 32 28 30 29 25 21 28 38 46 55 63 70 73 76 76 75 71 63 62 66
31 29 26 31 38 43 47 50 53 58 56 57 55 54 51 40 40 39 37 35 30 27 28 27 23 20 20 24 21 16 19 24 31 40 46 55 62 68 70 70 70 67 68 74
25 22 34 35 41 46 48 46 45 46 48 49 47 46 49 46 39 40 39 38 36 34 33 32 29 21 16 15 17 14 13 16 20 26 35 44 53 60 65 66 66 67 75 73
15 19 22 27 34 42 43 39 39 40 42 42 44 45 46 47 53 53 44 34 30 36 42 46 44 34 24 19 17 12 8 8 10 14 25 37 46 51 55 57 59 66 68 60
12 15 18 21 26 30 32 37 36 35 39 42 43 43 46 45 44 43 46 46 47 53 57 53 49 46 41 33 27 19 13 10 6 7 15 23 32 40 44 48 54 57 57 61
10 13 16 17 17 22 27 29 31 34 36 39 41 43 42 40 42 46 44 50 51 50 49 49 47 47 45 43 38 33 28 22 16 10 5 10 19 28 32 36 39 42 47 50
9 12 15 17 17 19 23 28 31 36 38 39 40 42 39 38 45 44 51 53 52 48 49 49 48 47 45 42 39 38 35 32 28 22 16 10 4 3 9 17 25 31 35 37
8 9 11 14 17 19 22 26 28 31 34 36 37 39 41 41 41 43 46 52 52 54 53 53 51 49 47 43 39 36 33 30 26 23 20 17 11 5 2 9 17 23 30 37
8 10 11 14 16 20 23 26 29 33 35 37 39 41 43 46 46 54 55 53 52 52 52 50 50 48 45 44 42 40 37 32 29 25 21 18 16 14 15 16 18 22 26 31
10 10 12 14 18 20 20 24 27 30 33 36 38 42 46 46 40 44 45 48 49 50 51 53 51 49 48 46 44 42 40 39 36 34 32 30 29 27 28 30 33 37 41 44
9 11 14 16 18 21 25 28 30 32 33 35 38 40 43 46 51 54 54 54 53 54 52 51 53 53 52 51 50 47 44 43 42 41 40 40 40 40 40 41 42 44 47 49
12 14 16 18 21 25 30 34 37 40 44 44 41 43 43 45 46 48 49 50 52 54 55 55 56 56 55 54 53 53 51 50 49 47 47 46 45 46 47 48 49 50 51 52
12 14 15 19 24 30 34 39 42 42 42 43 43 45 48 50 50 51 52 54 54 54 55 55 56 56 56 55 55 55 55 54 54 55 55 55 54 54 54 54 54 54 55 56
Wind_Direction_850mb
246 253 257 268 249 247 255 255 253 260 253 269 263 268 285 286 285 294 296 291 292 294 294 297 310 312 310 288 260 259 259 251 249 248 243 240 239 239 240 238 238 243 243 241
269 264 264 270 268 261 254 239 249 260 271 268 275 283 284 293 297 294 291 291 292 294 292 293 297 297 304 302 282 266 261 260 255 249 245 242 240 239 238 237 241 240 239 238
245 236 240 255 248 257 260 255 251 245 252 266 272 265 270 278 275 271 275 284 286 284 283 281 284 292 295 298 285 276 265 261 255 250 247 245 242 239 238 239 238 237 237 238
288 346 253 250 266 263 264 257 252 250 258 262 269 285 282 272 267 271 274 273 270 269 272 278 282 288 288 297 286 277 270 262 257 252 248 243 238 234 233 233 234 235 235 235
251 248 283 286 277 262 246 261 247 244 255 266 278 288 269 267 272 274 274 273 274 275 274 279 277 279 281 287 289 279 263 258 255 249 243 237 233 231 230 229 230 231 232 233
205 241 255 269 315 318 257 262 346 308 289 345 334 260 289 346 333 322 310 296 290 285 278 271 271 274 280 284 279 271 270 262 254 249 243 238 234 230 228 227 227 227 227 228
233 247 263 280 238 244 237 283 338 349 344 337 321 309 321 324 316 307 305 314 301 287 284 277 275 276 280 281 276 271 274 275 261 250 244 237 231 228 225 223 221 222 223 225
214 237 260 353 357 230 4 11 341 328 330 324 314 317 319 319 323 323 322 320 312 299 285 279 277 277 278 278 280 277 271 267 257 247 238 231 226 222 219 217 216 218 218 219
211 226 103 39 71 34 13 351 345 329 323 320 313 317 319 318 319 320 322 320 321 312 292 282 282 282 283 279 280 280 273 260 250 240 232 227 224 220 220 217 216 217 217 219
296 266 23 26 52 3 351 343 332 325 318 315 314 317 317 319 318 318 318 319 321 320 312 301 288 278 276 279 277 273 266 256 247 234 229 224 221 220 220 219 218 218 219 220
271 296 334 188 360 345 329 330 326 320 316 311 309 310 314 316 316 317 316 316 318 318 315 310 301 285 274 273 271 266 259 254 243 233 229 225 223 223 222 224 226 225 224 227
272 347 314 289 309 323 326 328 328 325 319 319 313 308 312 310 313 315 312 313 314 313 315 311 307 297 286 277 268 258 253 249 239 230 226 223 222 220 221 224 229 228 231 235
278 310 300 293 303 310 325 322 321 320 318 318 317 313 314 313 314 314 313 312 314 317 315 311 308 300 293 283 266 255 249 249 243 235 229 223 220 219 216 214 221 226 231 232
297 317 309 320 309 314 318 320 322 323 327 324 323 323 322 320 319 322 323 319 315 315 310 308 306 304 300 294 275 253 249 245 243 237 231 226 223 221 220 221 220 218 218 218
302 312 298 302 311 317 325 331 333 339 340 345 345 346 343 336 335 338 340 335 321 327 319 310 310 311 307 292 282 268 258 248 243 236 232 228 224 221 220 219 220 220 215 211
322 329 331 321 328 336 340 344 347 347 348 351 353 359 356 356 353 354 359 2 5 359 350 347 348 346 335 317 305 294 273 256 245 235 231 228 226 223 221 219 219 215 211 207
334 337 331 337 343 347 347 348 348 346 352 356 357 4 8 12 16 18 18 16 18 17 8 4 13 22 2 352 342 333 302 279 261 244 232 228 226 224 223 220 216 209 209 210
329 328 325 329 339 342 344 345 350 359 2 3 9 13 15 15 21 22 21 19 27 32 26 20 17 14 13 23 26 14 334 321 300 260 240 232 228 230 229 222 216 214 211 205
346 352 343 350 354 344 340 348 356 1 13 18 20 23 27 25 21 21 22 24 27 28 25 22 21 22 24 21 16 14 17 20 344 275 244 239 237 233 230 224 217 211 207 205
8 11 355 357 5 359 358 356 1 11 16 23 25 26 26 21 21 24 25 27 24 21 15 14 20 25 26 26 24 27 31 32 28 13 310 235 222 220 220 221 219 214 206 206
11 18 360 353 1 2 3 2 7 12 14 16 19 23 13 15 16 13 17 21 18 17 16 14 14 17 18 19 20 23 25 26 29 35 38 50 58 209 214 208 204 205 205 208
339 6 358 353 356 359 1 4 6 9 10 12 15 15 11 11 14 19 16 11 11 10 9 7 8 9 7 6 7 11 13 15 14 11 7 7 7 2 210 209 207 209 208 210
329 348 353 352 356 0 1 4 7 10 10 9 8 10 10 7 4 3 5 7 7 6 3 1 1 1 359 358 358 358 357 354 350 347 341 330 318 306 291 276 260 248 243 238
338 348 353 352 352 352 357 4 5 5 5 1 360 358 355 355 1 357 353 353 353 353 352 351 351 351 353 352 350 349 347 342 337 332 326 317 307 296 284 273 265 261 258 256
335 340 345 348 350 354 354 354 352 350 349 350 348 347 347 346 344 346 345 346 345 343 342 340 340 340 342 341 340 339 338 335 331 327 321 314 308 302 295 288 281 275 271 267
333 339 344 347 348 347 345 344 344 342 340 341 346 344 346 346 345 344 344 342 342 341 341 341 340 339 338 335 331 328 325 323 321 317 313 310 306 302 298 294 289 285 280 277
334 340 341 338 337 337 337 336 337 339 340 341 343 344 341 340 340 338 338 337 338 338 338 338 337 335 333 331 329 327 324 321 316 311 308 305 302 299 297 293 290 286 284 282